Powrót do katalogu

STARLINK-32206

AktywnyŁącznośćVLEO
NORAD 60273·PAYLOAD·🇺🇸 United States

Wystrzelony Jul 27, 2024 z Cape Canaveral Space Force Station

Loading…

Następne Przeloty (najbliższe 24 godziny)

TLE

ŚwieżeSource: CelesTrak SupGP

Epoka: Sep 14, 2026, 14:44 UTC

1 60273C 24131U   26257.61437500 -.00024046  00000+0 -71075-3 0  2574
2 60273  53.1568 253.3628 0001257  78.7557 352.8946 15.34389406    12

Śledź STARLINK-32206 w czasie rzeczywistym z AllMySat

Download on the App Store